| time (UTC) | temp F | wind direction | speed MPH | gust MPH | rain 1hr in | rain 24hr in | rain mn in | humidity % | barometer mb |
| 20260506062143 | 67 | 209 | 2.0 | 2.0 | 0.00 | 0.00 | 0.00 | 49 | 1008.0 |
| 20260506061639 | 66 | 291 | 1.0 | 5.0 | 0.00 | 0.00 | 0.00 | 49 | 1007.9 |
| 20260506061137 | 64 | 165 | 3.0 | 5.0 | 0.00 | 0.00 | 0.00 | 53 | 1007.8 |
| 20260506060635 | 64 | 62 | 0.0 | 0.0 | 0.00 | 0.00 | 0.00 | 54 | 1008.0 |
| 20260506060132 | 64 | 66 | 1.0 | 1.0 | 0.00 | 0.00 | 0.00 | 55 | 1008.1 |
| 20260506051104 | 67 | 286 | 1.0 | 3.0 | 0.00 | 0.00 | 0.00 | 47 | 1008.7 |
| 20260506050602 | 68 | 306 | 1.0 | 1.0 | 0.00 | 0.00 | 0.00 | 47 | 1008.6 |
| 20260506045052 | 68 | 69 | 1.0 | 1.0 | 0.00 | 0.00 | 0.00 | 47 | 1008.5 |
| 20260506044550 | 68 | 340 | 1.0 | 2.0 | 0.00 | 0.00 | 0.00 | 47 | 1008.5 |
| 20260506044046 | 68 | 221 | 1.0 | 2.0 | 0.00 | 0.00 | 0.00 | 47 | 1008.3 |
| 20260506043543 | 68 | 185 | 3.0 | 5.0 | 0.00 | 0.00 | 0.00 | 46 | 1008.7 |
| 20260506043042 | 68 | 317 | 2.0 | 2.0 | 0.00 | 0.00 | 0.00 | 45 | 1008.6 |
| 20260506042541 | 68 | 144 | 0.0 | 1.0 | 0.00 | 0.00 | 0.00 | 47 | 1008.8 |
| 20260506042038 | 68 | 236 | 1.0 | 2.0 | 0.00 | 0.00 | 0.00 | 45 | 1008.7 |
| 20260506041537 | 68 | 227 | 1.0 | 1.0 | 0.00 | 0.00 | 0.00 | 47 | 1009.0 |
| 20260506041033 | 68 | 187 | 3.0 | 3.0 | 0.00 | 0.00 | 0.00 | 48 | 1008.7 |
| 20260506040531 | 68 | 228 | 2.0 | 3.0 | 0.00 | 0.00 | 0.00 | 47 | 1008.6 |
| 20260506040027 | 68 | 60 | 1.0 | 1.0 | 0.00 | 0.01 | 0.01 | 48 | 1008.8 |
| 20260506035524 | 69 | 175 | 2.0 | 2.0 | 0.00 | 0.01 | 0.01 | 46 | 1008.9 |
| 20260506035021 | 69 | 199 | 0.0 | 1.0 | 0.00 | 0.01 | 0.01 | 45 | 1008.7 |
| 20260506034518 | 70 | 154 | 2.0 | 2.0 | 0.00 | 0.01 | 0.01 | 45 | 1008.8 |
| 20260506034015 | 70 | 192 | 3.0 | 3.0 | 0.00 | 0.01 | 0.01 | 44 | 1008.7 |
| 20260506033512 | 70 | 166 | 3.0 | 5.0 | 0.00 | 0.01 | 0.01 | 44 | 1008.8 |
| 20260506033009 | 70 | 273 | 3.0 | 6.0 | 0.00 | 0.01 | 0.01 | 45 | 1008.8 |
| 20260506032507 | 70 | 205 | 3.0 | 5.0 | 0.00 | 0.01 | 0.01 | 45 | 1008.9 |
| 20260506032003 | 70 | 240 | 2.0 | 3.0 | 0.00 | 0.01 | 0.01 | 44 | 1008.8 |
| 20260506031501 | 71 | 155 | 2.0 | 2.0 | 0.00 | 0.01 | 0.01 | 45 | 1008.7 |
| 20260506030958 | 71 | 244 | 2.0 | 2.0 | 0.00 | 0.01 | 0.01 | 44 | 1008.7 |
| 20260506030456 | 71 | 216 | 4.0 | 5.0 | 0.00 | 0.01 | 0.01 | 44 | 1008.6 |
| 20260506025952 | 71 | 247 | 2.0 | 3.0 | 0.00 | 0.01 | 0.01 | 45 | 1008.7 |
| 20260506025449 | 71 | 213 | 2.0 | 3.0 | 0.00 | 0.01 | 0.01 | 45 | 1008.7 |
| 20260506024946 | 70 | 187 | 3.0 | 5.0 | 0.00 | 0.01 | 0.01 | 45 | 1008.8 |
| 20260506024443 | 69 | 153 | 2.0 | 2.0 | 0.00 | 0.01 | 0.01 | 47 | 1008.7 |
| 20260506023938 | 66 | 252 | 0.0 | 1.0 | 0.00 | 0.01 | 0.01 | 53 | 1008.6 |
| 20260506023435 | 63 | 65 | 0.0 | 0.0 | 0.00 | 0.01 | 0.01 | 63 | 1008.7 |
| 20260506022932 | 63 | 65 | 0.0 | 0.0 | 0.00 | 0.01 | 0.01 | 64 | 1008.8 |
| 20260506022430 | 64 | 64 | 0.0 | 0.0 | 0.00 | 0.01 | 0.01 | 63 | 1008.7 |
| 20260506021928 | 64 | 66 | 1.0 | 1.0 | 0.00 | 0.01 | 0.01 | 62 | 1008.6 |
| 20260506021425 | 65 | 57 | 0.0 | 0.0 | 0.00 | 0.01 | 0.01 | 60 | 1008.8 |
| 20260506020922 | 65 | 67 | 0.0 | 1.0 | 0.00 | 0.01 | 0.01 | 59 | 1008.9 |
| 20260506020420 | 66 | 73 | 1.0 | 1.0 | 0.00 | 0.01 | 0.01 | 57 | 1008.8 |
| 20260506015916 | 67 | 97 | 1.0 | 1.0 | 0.00 | 0.01 | 0.01 | 55 | 1008.7 |
| 20260506015414 | 68 | 85 | 1.0 | 1.0 | 0.00 | 0.01 | 0.01 | 55 | 1008.8 |
| 20260506014910 | 68 | 73 | 1.0 | 1.0 | 0.00 | 0.01 | 0.01 | 54 | 1008.8 |
| 20260506014408 | 68 | 72 | 0.0 | 0.0 | 0.00 | 0.01 | 0.01 | 52 | 1008.8 |
| 20260506013904 | 68 | 70 | 0.0 | 0.0 | 0.00 | 0.01 | 0.01 | 53 | 1008.7 |
| 20260506013402 | 68 | 93 | 1.0 | 1.0 | 0.00 | 0.01 | 0.01 | 52 | 1008.6 |
| 20260506012858 | 67 | 80 | 1.0 | 1.0 | 0.00 | 0.01 | 0.01 | 55 | 1008.5 |
| 20260506012355 | 67 | 55 | 0.0 | 0.0 | 0.00 | 0.01 | 0.01 | 55 | 1008.6 |
| 20260506011852 | 68 | 41 | 0.0 | 0.0 | 0.00 | 0.01 | 0.01 | 55 | 1008.3 |
| 20260506011349 | 68 | 56 | 0.0 | 0.0 | 0.00 | 0.01 | 0.01 | 53 | 1008.3 |
| 20260506010846 | 68 | 52 | 0.0 | 0.0 | 0.00 | 0.01 | 0.01 | 53 | 1008.1 |
| 20260506010344 | 69 | 36 | 0.0 | 0.0 | 0.00 | 0.01 | 0.01 | 51 | 1008.1 |
| 20260506005841 | 70 | 34 | 0.0 | 0.0 | 0.00 | 0.01 | 0.01 | 48 | 1008.1 |
| 20260506005338 | 71 | 46 | 0.0 | 0.0 | 0.00 | 0.01 | 0.01 | 47 | 1007.7 |
| 20260506004833 | 71 | 122 | 1.0 | 1.0 | 0.00 | 0.01 | 0.01 | 46 | 1007.9 |
| 20260506004331 | 71 | 176 | 2.0 | 2.0 | 0.00 | 0.01 | 0.01 | 45 | 1007.6 |
| 20260506003827 | 72 | 67 | 1.0 | 1.0 | 0.00 | 0.01 | 0.01 | 45 | 1007.8 |
| 20260506003324 | 72 | 145 | 1.0 | 2.0 | 0.00 | 0.01 | 0.01 | 45 | 1007.7 |
| 20260506002820 | 72 | 41 | 0.0 | 0.0 | 0.00 | 0.01 | 0.01 | 45 | 1007.8 |
| 20260506002317 | 74 | 52 | 0.0 | 1.0 | 0.00 | 0.01 | 0.01 | 43 | 1007.9 |
| 20260506001812 | 74 | 7 | 0.0 | 0.0 | 0.00 | 0.01 | 0.01 | 42 | 1007.7 |
| 20260506001310 | 74 | 278 | 1.0 | 2.0 | 0.00 | 0.01 | 0.01 | 42 | 1007.6 |
| 20260506000806 | 74 | 326 | 1.0 | 1.0 | 0.00 | 0.01 | 0.01 | 42 | 1007.7 |
| 20260506000304 | 74 | 352 | 0.0 | 0.0 | 0.00 | 0.01 | 0.01 | 41 | 1007.6 |
| 20260505235801 | 74 | 343 | 1.0 | 1.0 | 0.00 | 0.01 | 0.01 | 41 | 1007.7 |
| 20260505235259 | 75 | 31 | 0.0 | 0.0 | 0.00 | 0.01 | 0.01 | 41 | 1007.5 |
| 20260505234755 | 75 | 162 | 1.0 | 1.0 | 0.00 | 0.01 | 0.01 | 40 | 1007.3 |
| 20260505234253 | 75 | 212 | 3.0 | 3.0 | 0.00 | 0.01 | 0.01 | 40 | 1007.5 |
| 20260505233749 | 75 | 351 | 1.0 | 2.0 | 0.00 | 0.01 | 0.01 | 40 | 1007.4 |
| 20260505233247 | 75 | 221 | 1.0 | 1.0 | 0.00 | 0.01 | 0.01 | 40 | 1007.2 |
| 20260505232744 | 75 | 175 | 3.0 | 3.0 | 0.00 | 0.01 | 0.01 | 39 | 1007.3 |
| 20260505232242 | 75 | 182 | 1.0 | 1.0 | 0.00 | 0.01 | 0.01 | 39 | 1007.4 |
| 20260505231738 | 75 | 254 | 5.0 | 10.0 | 0.00 | 0.01 | 0.01 | 40 | 1007.1 |
| 20260505231237 | 76 | 273 | 2.0 | 2.0 | 0.00 | 0.01 | 0.01 | 39 | 1007.2 |
| 20260505230735 | 75 | 188 | 3.0 | 5.0 | 0.00 | 0.01 | 0.01 | 40 | 1007.0 |
| 20260505230231 | 75 | 298 | 2.0 | 3.0 | 0.00 | 0.01 | 0.01 | 40 | 1007.0 |
| 20260505225728 | 76 | 109 | 5.0 | 6.0 | 0.00 | 0.01 | 0.01 | 40 | 1007.0 |
| 20260505225225 | 76 | 233 | 6.0 | 7.0 | 0.00 | 0.01 | 0.01 | 39 | 1007.2 |
| 20260505224720 | 76 | 176 | 3.0 | 5.0 | 0.00 | 0.01 | 0.01 | 40 | 1007.0 |
| 20260505224218 | 76 | 154 | 2.0 | 3.0 | 0.00 | 0.01 | 0.01 | 40 | 1007.0 |
| 20260505223716 | 76 | 80 | 1.0 | 1.0 | 0.00 | 0.01 | 0.01 | 40 | 1007.1 |
| 20260505223211 | 76 | 74 | 1.0 | 1.0 | 0.00 | 0.01 | 0.01 | 40 | 1006.9 |
| 20260505222708 | 76 | 196 | 5.0 | 9.0 | 0.00 | 0.01 | 0.01 | 40 | 1007.0 |
| 20260505222203 | 75 | 211 | 3.0 | 3.0 | 0.00 | 0.01 | 0.01 | 40 | 1007.0 |
| 20260505221701 | 75 | 145 | 2.0 | 2.0 | 0.00 | 0.01 | 0.01 | 41 | 1006.8 |
| 20260505221158 | 75 | 198 | 2.0 | 3.0 | 0.00 | 0.01 | 0.01 | 41 | 1006.8 |
| 20260505220655 | 75 | 227 | 3.0 | 3.0 | 0.00 | 0.01 | 0.01 | 41 | 1006.9 |
| 20260505220153 | 75 | 25 | 1.0 | 1.0 | 0.00 | 0.01 | 0.01 | 42 | 1006.8 |
| 20260505215650 | 75 | 180 | 3.0 | 5.0 | 0.00 | 0.01 | 0.01 | 42 | 1007.0 |
| 20260505215148 | 75 | 275 | 3.0 | 5.0 | 0.00 | 0.01 | 0.01 | 43 | 1007.0 |
| 20260505214646 | 75 | 220 | 2.0 | 2.0 | 0.00 | 0.01 | 0.01 | 42 | 1007.0 |
| 20260505214143 | 76 | 5 | 1.0 | 2.0 | 0.00 | 0.01 | 0.01 | 42 | 1007.0 |
| 20260505213640 | 76 | 232 | 5.0 | 8.0 | 0.00 | 0.01 | 0.01 | 41 | 1007.0 |
| 20260505213137 | 76 | 207 | 2.0 | 2.0 | 0.00 | 0.01 | 0.01 | 41 | 1007.0 |
| 20260505212632 | 76 | 335 | 2.0 | 3.0 | 0.00 | 0.01 | 0.01 | 39 | 1006.9 |
| 20260505212131 | 77 | 47 | 0.0 | 1.0 | 0.00 | 0.01 | 0.01 | 39 | 1006.9 |
| 20260505211627 | 77 | 236 | 6.0 | 14.0 | 0.00 | 0.01 | 0.01 | 37 | 1006.7 |
| 20260505211124 | 77 | 22 | 1.0 | 2.0 | 0.00 | 0.01 | 0.01 | 37 | 1006.7 |
| 20260505210621 | 77 | 232 | 2.0 | 3.0 | 0.00 | 0.01 | 0.01 | 37 | 1006.6 |
| 20260505210118 | 78 | 129 | 2.0 | 3.0 | 0.00 | 0.01 | 0.01 | 37 | 1006.4 |
| 20260505205615 | 78 | 209 | 5.0 | 7.0 | 0.00 | 0.01 | 0.01 | 37 | 1006.7 |
| 20260505205113 | 77 | 156 | 1.0 | 2.0 | 0.00 | 0.01 | 0.01 | 39 | 1006.6 |
| 20260505204610 | 76 | 198 | 3.0 | 5.0 | 0.00 | 0.01 | 0.01 | 40 | 1006.7 |
| 20260505204107 | 77 | 128 | 1.0 | 2.0 | 0.00 | 0.01 | 0.01 | 40 | 1006.7 |
| 20260505203604 | 77 | 146 | 7.0 | 8.0 | 0.00 | 0.01 | 0.01 | 37 | 1006.7 |
| 20260505203101 | 77 | 245 | 7.0 | 10.0 | 0.00 | 0.01 | 0.01 | 37 | 1006.6 |
| 20260505202557 | 77 | 164 | 9.0 | 11.0 | 0.00 | 0.01 | 0.01 | 36 | 1006.5 |
| 20260505202053 | 78 | 228 | 5.0 | 8.0 | 0.00 | 0.01 | 0.01 | 36 | 1006.5 |
| 20260505201550 | 78 | 197 | 4.0 | 7.0 | 0.00 | 0.01 | 0.01 | 35 | 1006.5 |
| 20260505201048 | 78 | 269 | 5.0 | 7.0 | 0.00 | 0.01 | 0.01 | 35 | 1006.6 |
| 20260505200545 | 78 | 180 | 7.0 | 10.0 | 0.00 | 0.01 | 0.01 | 35 | 1006.2 |
| 20260505200042 | 78 | 186 | 5.0 | 11.0 | 0.00 | 0.01 | 0.01 | 35 | 1006.3 |
| 20260505195538 | 79 | 167 | 4.0 | 6.0 | 0.00 | 0.01 | 0.01 | 35 | 1006.2 |
| 20260505195036 | 79 | 187 | 5.0 | 10.0 | 0.00 | 0.01 | 0.01 | 34 | 1006.4 |
| 20260505194533 | 80 | 211 | 7.0 | 8.0 | 0.00 | 0.01 | 0.01 | 34 | 1006.2 |
| 20260505194028 | 82 | 7 | 5.0 | 7.0 | 0.00 | 0.01 | 0.01 | 33 | 1006.6 |
| 20260505193526 | 82 | 126 | 6.0 | 10.0 | 0.00 | 0.01 | 0.01 | 33 | 1006.4 |
| 20260505193023 | 81 | 263 | 4.0 | 6.0 | 0.00 | 0.01 | 0.01 | 33 | 1006.5 |
| 20260505192521 | 80 | 238 | 5.0 | 9.0 | 0.00 | 0.01 | 0.01 | 34 | 1006.6 |
| 20260505192018 | 81 | 234 | 6.0 | 9.0 | 0.00 | 0.01 | 0.01 | 34 | 1006.6 |
| 20260505191517 | 80 | 215 | 10.0 | 16.0 | 0.00 | 0.01 | 0.01 | 33 | 1006.7 |
| 20260505191014 | 81 | 339 | 4.0 | 6.0 | 0.00 | 0.01 | 0.01 | 35 | 1006.7 |
| 20260505190509 | 80 | 287 | 2.0 | 3.0 | 0.00 | 0.01 | 0.01 | 37 | 1006.9 |
| 20260505190005 | 81 | 268 | 5.0 | 6.0 | 0.00 | 0.01 | 0.01 | 34 | 1006.9 |
| 20260505185502 | 81 | 213 | 5.0 | 7.0 | 0.00 | 0.01 | 0.01 | 33 | 1007.1 |
| 20260505184958 | 81 | 260 | 10.0 | 15.0 | 0.00 | 0.01 | 0.01 | 34 | 1007.2 |
| 20260505184455 | 80 | 303 | 3.0 | 5.0 | 0.00 | 0.01 | 0.01 | 38 | 1007.0 |
| 20260505183951 | 79 | 34 | 3.0 | 5.0 | 0.00 | 0.01 | 0.01 | 35 | 1007.2 |
| 20260505183449 | 79 | 180 | 1.0 | 2.0 | 0.00 | 0.01 | 0.01 | 33 | 1007.3 |
| 20260505182945 | 79 | 271 | 4.0 | 6.0 | 0.00 | 0.01 | 0.01 | 34 | 1007.6 |
| 20260505182442 | 79 | 186 | 7.0 | 10.0 | 0.00 | 0.01 | 0.01 | 35 | 1007.7 |
| 20260505181938 | 79 | 144 | 4.0 | 5.0 | 0.00 | 0.01 | 0.01 | 37 | 1007.4 |
| 20260505181436 | 80 | 138 | 3.0 | 5.0 | 0.00 | 0.01 | 0.01 | 36 | 1007.5 |
| 20260505180933 | 80 | 320 | 4.0 | 6.0 | 0.00 | 0.01 | 0.01 | 35 | 1007.7 |
| 20260505180429 | 80 | 222 | 4.0 | 6.0 | 0.00 | 0.01 | 0.01 | 33 | 1007.7 |
| 20260505175926 | 80 | 26 | 8.0 | 14.0 | 0.00 | 0.01 | 0.01 | 34 | 1007.6 |
| 20260505175422 | 80 | 334 | 1.0 | 1.0 | 0.00 | 0.01 | 0.01 | 38 | 1007.6 |
| 20260505174918 | 79 | 207 | 7.0 | 9.0 | 0.00 | 0.01 | 0.01 | 38 | 1007.8 |
| 20260505174416 | 80 | 23 | 2.0 | 3.0 | 0.00 | 0.01 | 0.01 | 40 | 1007.8 |
| 20260505173912 | 79 | 174 | 7.0 | 8.0 | 0.00 | 0.01 | 0.01 | 40 | 1007.8 |
| 20260505173408 | 78 | 24 | 2.0 | 3.0 | 0.00 | 0.01 | 0.01 | 41 | 1007.7 |
| 20260505172905 | 79 | 18 | 1.0 | 1.0 | 0.00 | 0.01 | 0.01 | 45 | 1007.8 |
| 20260505172403 | 79 | 302 | 3.0 | 5.0 | 0.00 | 0.01 | 0.01 | 43 | 1007.8 |
| 20260505171903 | 78 | 187 | 3.0 | 3.0 | 0.00 | 0.01 | 0.01 | 41 | 1007.7 |
| 20260505171400 | 78 | 322 | 3.0 | 5.0 | 0.00 | 0.01 | 0.01 | 42 | 1007.9 |
| 20260505170856 | 78 | 94 | 3.0 | 5.0 | 0.00 | 0.01 | 0.01 | 42 | 1007.6 |
| 20260505170354 | 78 | 173 | 3.0 | 3.0 | 0.00 | 0.01 | 0.01 | 42 | 1007.9 |
| 20260505165848 | 78 | 248 | 5.0 | 8.0 | 0.00 | 0.01 | 0.01 | 40 | 1008.1 |
| 20260505165344 | 78 | 240 | 4.0 | 6.0 | 0.00 | 0.01 | 0.01 | 43 | 1008.2 |
| 20260505164840 | 78 | 210 | 5.0 | 6.0 | 0.00 | 0.01 | 0.01 | 41 | 1008.1 |
| 20260505164337 | 78 | 358 | 3.0 | 6.0 | 0.00 | 0.01 | 0.01 | 41 | 1008.3 |
| 20260505163836 | 78 | 257 | 4.0 | 5.0 | 0.00 | 0.01 | 0.01 | 44 | 1008.6 |
| 20260505163334 | 78 | 336 | 3.0 | 5.0 | 0.00 | 0.01 | 0.01 | 42 | 1008.6 |
| 20260505162832 | 78 | 307 | 5.0 | 7.0 | 0.00 | 0.01 | 0.01 | 43 | 1008.5 |
| 20260505162328 | 77 | 344 | 2.0 | 3.0 | 0.00 | 0.01 | 0.01 | 41 | 1008.5 |
| 20260505161825 | 77 | 293 | 6.0 | 8.0 | 0.00 | 0.01 | 0.01 | 42 | 1008.6 |
| 20260505161322 | 77 | 39 | 7.0 | 10.0 | 0.00 | 0.01 | 0.01 | 43 | 1008.5 |
| 20260505160819 | 76 | 359 | 1.0 | 1.0 | 0.00 | 0.01 | 0.01 | 44 | 1008.7 |
| 20260505160318 | 76 | 231 | 2.0 | 2.0 | 0.00 | 0.01 | 0.01 | 44 | 1008.5 |
| 20260505153256 | 77 | 252 | 3.0 | 6.0 | 0.00 | 0.01 | 0.01 | 43 | 1009.0 |
| 20260505152753 | 76 | 223 | 3.0 | 6.0 | 0.00 | 0.01 | 0.01 | 45 | 1009.1 |
| 20260505152250 | 76 | 137 | 5.0 | 7.0 | 0.00 | 0.01 | 0.01 | 45 | 1009.0 |
| 20260505151744 | 77 | 149 | 4.0 | 7.0 | 0.00 | 0.01 | 0.01 | 44 | 1009.1 |
| 20260505151242 | 76 | 204 | 5.0 | 7.0 | 0.00 | 0.01 | 0.01 | 45 | 1008.9 |
| 20260505150739 | 76 | 215 | 3.0 | 6.0 | 0.00 | 0.01 | 0.01 | 45 | 1009.0 |
| 20260505150236 | 76 | 224 | 7.0 | 9.0 | 0.00 | 0.01 | 0.01 | 44 | 1009.3 |
| 20260505140200 | 73 | 13 | 2.0 | 3.0 | 0.00 | 0.01 | 0.01 | 49 | 1009.3 |
| 20260505130124 | 70 | 159 | 2.0 | 2.0 | 0.00 | 0.01 | 0.01 | 55 | 1009.6 |
| 20260505124613 | 68 | 37 | 0.0 | 1.0 | 0.00 | 0.01 | 0.01 | 57 | 1009.7 |
| 20260505124110 | 68 | 207 | 3.0 | 3.0 | 0.00 | 0.01 | 0.01 | 56 | 1009.8 |
| 20260505123606 | 69 | 345 | 0.0 | 1.0 | 0.00 | 0.01 | 0.01 | 57 | 1009.8 |
| 20260505123103 | 69 | 220 | 2.0 | 2.0 | 0.00 | 0.01 | 0.01 | 56 | 1009.6 |
| 20260505122559 | 68 | 187 | 2.0 | 2.0 | 0.00 | 0.01 | 0.01 | 56 | 1009.8 |
| 20260505122056 | 68 | 243 | 2.0 | 2.0 | 0.00 | 0.01 | 0.01 | 59 | 1009.8 |
| 20260505121553 | 68 | 230 | 2.0 | 2.0 | 0.00 | 0.01 | 0.01 | 57 | 1009.9 |
| 20260505121050 | 67 | 190 | 1.0 | 1.0 | 0.00 | 0.01 | 0.01 | 58 | 1009.8 |
| 20260505120546 | 67 | 198 | 2.0 | 2.0 | 0.00 | 0.01 | 0.01 | 57 | 1009.7 |
| 20260505120042 | 67 | 73 | 1.0 | 2.0 | 0.00 | 0.01 | 0.01 | 57 | 1009.5 |
| 20260505115536 | 66 | 313 | 1.0 | 1.0 | 0.00 | 0.01 | 0.01 | 59 | 1009.4 |
| 20260505115034 | 65 | 250 | 2.0 | 2.0 | 0.00 | 0.01 | 0.01 | 61 | 1009.4 |
| 20260505114531 | 64 | 200 | 1.0 | 2.0 | 0.00 | 0.01 | 0.01 | 62 | 1009.6 |
| 20260505114027 | 64 | 22 | 0.0 | 1.0 | 0.00 | 0.01 | 0.01 | 64 | 1009.7 |
| 20260505113524 | 64 | 166 | 2.0 | 2.0 | 0.00 | 0.01 | 0.01 | 64 | 1009.6 |
| 20260505113020 | 63 | 242 | 3.0 | 6.0 | 0.00 | 0.01 | 0.01 | 64 | 1009.5 |
| 20260505112516 | 63 | 338 | 1.0 | 1.0 | 0.00 | 0.01 | 0.01 | 65 | 1009.6 |
| 20260505112014 | 63 | 148 | 4.0 | 6.0 | 0.00 | 0.01 | 0.01 | 64 | 1009.4 |
| 20260505111508 | 63 | 268 | 1.0 | 1.0 | 0.00 | 0.01 | 0.01 | 64 | 1009.3 |
| 20260505111005 | 62 | 245 | 4.0 | 6.0 | 0.00 | 0.01 | 0.01 | 65 | 1009.4 |
| 20260505110501 | 61 | 59 | 0.0 | 1.0 | 0.00 | 0.01 | 0.01 | 69 | 1009.4 |
| 20260505101934 | 58 | 337 | 1.0 | 1.0 | 0.00 | 0.01 | 0.01 | 72 | 1008.9 |
| 20260505101433 | 58 | 16 | 0.0 | 0.0 | 0.00 | 0.01 | 0.01 | 74 | 1008.9 |
| 20260505100929 | 57 | 247 | 1.0 | 1.0 | 0.00 | 0.01 | 0.01 | 74 | 1008.7 |
| 20260505100426 | 57 | 74 | 1.0 | 1.0 | 0.00 | 0.01 | 0.01 | 75 | 1009.0 |
| 20260505095921 | 58 | 241 | 0.0 | 0.0 | 0.00 | 0.01 | 0.01 | 72 | 1008.9 |
| 20260505095419 | 58 | 216 | 2.0 | 2.0 | 0.00 | 0.01 | 0.01 | 71 | 1009.0 |
| 20260505094915 | 59 | 191 | 1.0 | 1.0 | 0.00 | 0.01 | 0.01 | 70 | 1008.8 |
| 20260505094412 | 59 | 167 | 1.0 | 2.0 | 0.00 | 0.01 | 0.01 | 69 | 1008.9 |
| 20260505093908 | 59 | 151 | 2.0 | 3.0 | 0.00 | 0.01 | 0.01 | 69 | 1008.7 |
| 20260505093405 | 59 | 291 | 1.0 | 2.0 | 0.00 | 0.01 | 0.01 | 68 | 1008.8 |
| 20260505092902 | 59 | 195 | 3.0 | 5.0 | 0.00 | 0.01 | 0.01 | 68 | 1008.8 |
| 20260505092400 | 60 | 259 | 3.0 | 3.0 | 0.00 | 0.01 | 0.01 | 67 | 1008.8 |
| 20260505091857 | 60 | 144 | 2.0 | 2.0 | 0.00 | 0.01 | 0.01 | 68 | 1008.6 |
| 20260505091355 | 59 | 142 | 1.0 | 2.0 | 0.00 | 0.01 | 0.01 | 68 | 1008.8 |
| 20260505090853 | 58 | 202 | 1.0 | 1.0 | 0.00 | 0.01 | 0.01 | 70 | 1008.5 |
| 20260505090351 | 57 | 158 | 1.0 | 1.0 | 0.00 | 0.01 | 0.01 | 72 | 1008.8 |
| 20260505085848 | 57 | 142 | 1.0 | 1.0 | 0.00 | 0.01 | 0.01 | 75 | 1008.7 |
| 20260505085346 | 55 | 133 | 2.0 | 3.0 | 0.00 | 0.01 | 0.01 | 82 | 1008.9 |
| 20260505084843 | 55 | 168 | 1.0 | 1.0 | 0.00 | 0.01 | 0.01 | 87 | 1008.9 |
| 20260505084341 | 55 | 153 | 1.0 | 2.0 | 0.00 | 0.01 | 0.01 | 89 | 1008.9 |
| 20260505083839 | 55 | 160 | 1.0 | 1.0 | 0.00 | 0.01 | 0.01 | 88 | 1008.8 |
| 20260505083336 | 56 | 63 | 1.0 | 1.0 | 0.00 | 0.01 | 0.01 | 85 | 1008.8 |
| 20260505082832 | 57 | 87 | 0.0 | 0.0 | 0.00 | 0.01 | 0.01 | 81 | 1008.9 |
| 20260505082328 | 59 | 105 | 1.0 | 1.0 | 0.00 | 0.01 | 0.01 | 78 | 1009.1 |
| 20260505081825 | 59 | 28 | 0.0 | 0.0 | 0.00 | 0.01 | 0.01 | 75 | 1009.3 |
| 20260505081322 | 59 | 348 | 0.0 | 0.0 | 0.00 | 0.01 | 0.01 | 72 | 1009.0 |
| 20260505080819 | 59 | 246 | 2.0 | 2.0 | 0.00 | 0.01 | 0.01 | 73 | 1008.8 |
| 20260505080315 | 60 | 166 | 3.0 | 3.0 | 0.05 | 0.01 | 0.01 | 71 | 1008.6 |
| 20260505075810 | 61 | 148 | 2.0 | 2.0 | 0.05 | 0.01 | 0.01 | 71 | 1008.5 |
| 20260505075308 | 62 | 0 | 1.0 | 2.0 | 0.00 | 0.00 | 0.00 | 64 | 1008.2 |
| 20260505074805 | 62 | 201 | 2.0 | 2.0 | 0.00 | 0.00 | 0.00 | 58 | 1008.9 |
| 20260505074302 | 62 | 138 | 2.0 | 2.0 | 0.00 | 0.00 | 0.00 | 58 | 1008.5 |
| 20260505073759 | 62 | 233 | 2.0 | 2.0 | 0.00 | 0.00 | 0.00 | 57 | 1008.5 |
| 20260505073257 | 62 | 241 | 2.0 | 2.0 | 0.00 | 0.00 | 0.00 | 59 | 1008.1 |
| 20260505072754 | 62 | 125 | 1.0 | 1.0 | 0.00 | 0.00 | 0.00 | 59 | 1008.3 |
| 20260505072250 | 63 | 97 | 0.0 | 1.0 | 0.00 | 0.00 | 0.00 | 57 | 1008.2 |
| 20260505071746 | 63 | 258 | 2.0 | 2.0 | 0.00 | 0.00 | 0.00 | 56 | 1008.6 |
| 20260505071242 | 64 | 107 | 1.0 | 1.0 | 0.00 | 0.00 | 0.00 | 56 | 1008.3 |
| 20260505070740 | 64 | 242 | 1.0 | 1.0 | 0.00 | 0.00 | 0.00 | 55 | 1008.2 |
| 20260505070236 | 63 | 163 | 3.0 | 5.0 | 0.00 | 0.00 | 0.00 | 55 | 1008.5 |
| 20260505065732 | 63 | 158 | 3.0 | 3.0 | 0.00 | 0.00 | 0.00 | 55 | 1008.3 |